Theta_e
310 309 309 309 308 308 307 308 307 306 305 304 303 302 304 304 304 303 307 312 303 301 303 305 304 300 301 300 296 302 299 299 297 293 293 293 293 295 295 298 297 296 296 295 295 292 288 309 309 302 310 312 310 309
309 309 309 309 308 308 307 307 307 306 305 304 304 302 303 303 303 303 302 309 308 299 301 304 305 306 304 303 300 302 300 300 301 296 296 297 294 296 297 291 303 295 300 298 298 297 311 310 310 315 315 312 310 310
310 309 309 308 308 307 307 307 306 305 305 304 304 302 303 303 304 302 303 306 303 299 299 300 300 305 306 304 307 297 300 304 303 305 297 296 292 296 291 294 297 302 307 301 300 303 307 312 312 313 310 307 312 310
310 310 309 308 308 307 306 305 304 304 303 304 304 302 303 303 304 304 303 305 303 299 293 299 306 303 305 305 304 304 303 304 305 302 297 294 291 297 292 295 294 296 299 297 297 302 304 307 309 310 311 310 310 311
309 309 309 308 307 306 305 304 304 304 304 303 303 303 304 304 304 304 305 306 306 298 293 296 302 303 303 303 302 302 302 301 297 295 294 291 294 294 294 295 292 296 296 293 294 302 301 301 306 305 303 304 305 305
308 307 306 306 305 304 303 303 303 303 302 303 304 303 303 303 303 303 298 304 306 304 295 290 301 300 302 302 302 300 300 300 298 295 294 295 298 294 289 289 296 298 301 302 299 303 303 303 304 303 302 304 304 305
304 304 304 304 303 303 303 303 303 302 303 303 302 302 302 302 301 297 294 300 303 305 295 291 292 299 301 301 300 300 301 298 297 295 293 293 294 295 292 289 296 297 299 301 302 302 299 300 301 304 305 306 306 305
303 303 303 303 303 303 302 302 302 303 303 302 302 303 303 303 302 299 303 301 301 299 297 290 290 295 302 295 294 300 297 297 297 295 296 293 295 295 290 296 297 299 300 300 300 301 301 302 303 303 305 305 304 302
303 303 303 302 302 302 302 303 303 303 303 303 303 303 303 299 297 301 304 302 303 299 292 291 288 288 300 296 297 296 298 291 297 294 294 295 293 289 293 296 297 299 299 299 300 300 299 299 299 301 302 303 302 302
302 302 302 302 303 303 302 303 303 303 303 303 301 297 293 300 304 303 299 295 295 296 295 290 294 289 295 294 293 293 294 291 288 292 296 293 291 298 300 300 301 300 300 299 296 295 299 298 298 299 300 302 303 303
301 301 301 302 302 302 303 302 302 302 302 300 297 295 303 304 300 296 291 291 292 288 292 293 293 291 297 290 290 294 291 291 286 289 289 288 289 296 299 299 301 300 303 301 301 302 301 301 301 300 300 302 303 303
302 302 302 302 302 302 302 302 302 302 303 300 300 302 301 296 292 288 289 291 290 287 293 292 293 295 295 298 293 293 289 290 283 293 289 286 292 298 299 299 297 299 303 303 302 301 301 301 302 302 304 304 305 306
301 302 302 302 302 302 302 302 302 303 303 302 297 293 293 292 284 283 282 285 286 291 293 294 294 296 297 298 294 292 286 286 293 288 287 290 297 299 301 301 300 302 302 303 302 302 302 301 303 304 303 305 306 307
302 301 301 302 302 302 302 302 302 302 299 295 290 283 287 284 286 288 288 289 294 295 295 296 296 295 297 292 292 286 290 291 285 284 286 295 298 300 301 301 302 301 301 300 300 301 302 302 302 304 305 306 306 306
302 302 302 301 301 302 302 302 302 302 297 291 292 283 286 290 290 293 294 293 296 296 296 296 296 295 291 288 290 289 286 284 286 287 293 296 298 298 300 301 301 301 301 300 302 300 301 302 300 301 303 305 306 307
301 300 301 302 301 301 302 302 301 302 297 293 292 288 291 289 291 292 293 293 296 296 298 298 292 289 287 289 286 285 284 283 289 294 297 298 297 299 302 302 302 302 302 302 302 302 300 300 299 299 302 304 306 308
298 299 300 300 301 301 302 301 301 294 293 291 290 294 293 291 291 294 295 296 298 296 291 293 286 286 292 286 285 289 287 291 295 297 300 302 302 302 302 301 302 302 302 301 300 300 299 300 301 300 302 305 309 310
300 301 300 298 299 300 301 299 295 292 288 292 290 292 294 295 294 295 296 298 296 294 293 290 293 288 285 284 286 291 294 296 298 299 300 302 303 303 303 302 301 300 299 299 299 299 299 299 300 303 308 311 311 311
298 301 299 299 300 298 295 295 295 288 290 293 294 295 295 295 297 297 296 298 298 298 294 291 288 288 290 291 292 294 295 297 297 298 300 302 302 301 301 301 301 299 297 297 297 298 299 301 304 306 311 313 309 311
299 299 300 300 299 296 291 293 297 291 289 293 295 294 295 296 298 298 298 298 297 295 292 290 289 292 293 295 297 297 296 296 295 294 295 297 299 299 297 298 297 297 297 297 299 297 301 303 306 311 314 314 311 308
297 301 300 300 298 297 295 293 293 293 293 293 295 295 294 296 294 292 292 295 290 289 290 293 295 298 298 298 297 295 294 293 291 291 291 291 295 296 296 296 297 297 298 299 301 303 304 310 315 316 315 313 312 310
302 301 301 299 295 295 293 296 293 295 293 292 293 293 291 290 292 294 296 289 289 291 293 292 292 293 293 292 293 294 294 294 295 295 293 294 293 294 296 297 297 297 299 300 304 308 312 314 316 316 315 313 310 309
299 300 298 296 291 289 289 295 290 292 288 290 292 289 290 291 295 299 290 292 291 294 294 292 292 293 291 292 293 294 297 298 298 298 298 297 297 298 298 299 300 300 301 303 309 313 310 303 305 310 309 309 308 307
298 294 290 289 290 287 292 289 290 290 290 289 288 288 290 292 296 290 288 291 293 293 291 290 291 291 293 295 296 299 300 302 299 299 300 299 298 299 301 301 302 303 304 307 310 311 309 308 303 308 308 307 307 306
288 289 289 286 291 287 286 288 289 289 287 290 287 289 291 294 288 287 287 289 288 288 289 292 294 295 295 299 300 300 303 302 300 298 301 302 301 303 307 308 308 310 312 308 307 307 307 308 308 307 307 306 305 307
285 290 287 290 290 286 290 287 289 289 289 289 290 294 296 293 288 285 286 289 288 289 291 292 295 298 300 301 300 300 302 305 305 303 305 308 309 309 306 305 304 304 309 310 308 307 306 307 307 307 307 304 296 307
285 291 296 300 297 294 291 292 293 291 290 289 292 291 290 286 285 288 291 291 289 292 295 297 298 298 298 300 302 304 305 305 305 306 309 310 312 313 310 306 306 307 311 311 310 309 307 307 307 307 307 309 310 309
293 296 292 297 297 299 294 294 292 291 292 295 294 287 286 285 285 289 288 291 295 297 298 299 300 301 301 301 302 303 304 305 307 312 313 312 313 314 312 309 306 296 305 308 311 310 310 310 310 309 308 308 308 309
297 301 300 295 296 296 295 294 294 297 299 296 292 290 291 293 295 295 296 297 298 297 296 296 298 301 301 302 303 305 304 303 301 302 304 304 306 309 315 313 311 310 311 309 292 302 310 310 310 310 310 310 309 309
297 302 298 296 294 294 297 299 298 301 301 302 301 299 297 297 300 301 299 298 296 297 296 297 298 298 297 296 297 300 303 303 302 301 301 302 306 312 313 310 308 308 312 313 312 309 294 305 302 310 308 308 308 307
302 301 297 298 296 298 301 303 304 303 302 301 302 299 298 300 302 302 300 298 298 298 296 295 296 298 298 297 296 296 296 301 303 303 301 308 310 313 313 310 309 311 313 311 312 311 309 309 309 308 307 307 306 305
301 297 296 293 296 300 302 300 300 298 298 298 297 299 299 297 294 298 299 297 296 294 293 295 295 296 300 300 301 302 292 305 305 301 298 299 301 306 311 310 310 310 310 308 311 312 312 310 308 308 307 307 307 308
298 299 298 296 295 294 298 297 297 297 298 297 296 297 297 296 292 296 298 299 297 296 296 297 299 301 301 301 302 304 299 309 303 290 289 289 287 293 310 311 309 307 306 305 306 307 308 309 309 308 308 309 308 308
Wind_Speed
24 23 23 22 21 20 19 16 15 13 11 8 5 3 3 6 9 8 4 3 5 6 12 9 8 8 8 4 6 4 4 6 6 9 9 11 11 12 15 17 17 15 10 12 15 19 20 12 15 9 6 6 4 3
24 24 24 23 22 21 18 17 15 14 12 9 6 3 3 4 7 8 6 4 3 6 8 13 10 8 10 11 7 6 8 6 2 5 5 6 11 11 14 14 12 12 12 7 3 9 7 7 7 12 14 4 4 1
24 25 25 25 24 22 20 18 16 13 12 9 7 5 4 4 6 6 7 5 4 8 11 13 16 15 11 9 8 6 6 8 6 9 6 5 9 8 11 12 12 14 12 12 9 12 12 6 4 3 6 15 16 4
23 23 24 24 25 23 20 20 17 13 10 9 8 6 4 4 6 6 7 5 4 6 6 3 6 5 4 6 10 10 13 8 6 6 7 8 11 9 12 14 14 12 14 13 16 16 13 10 13 12 8 9 8 13
16 18 18 18 22 23 22 19 16 13 11 10 7 7 7 7 7 8 7 6 1 5 6 6 10 6 6 6 8 8 8 8 7 9 9 11 12 12 12 13 15 13 13 11 13 13 11 14 15 15 14 14 16 14
17 23 25 26 25 23 19 16 15 13 10 8 8 5 4 3 4 7 5 1 3 3 5 5 4 2 10 11 7 10 10 8 9 9 9 11 14 10 10 14 20 15 13 13 16 17 16 18 16 19 17 16 17 16
26 25 25 24 21 19 18 16 14 11 10 9 7 5 4 4 6 2 2 2 9 5 4 5 5 9 6 7 9 8 9 7 8 10 11 13 13 11 13 18 19 19 19 18 19 19 19 21 16 17 16 15 13 16
22 22 21 21 20 18 17 15 13 11 10 8 6 5 4 3 8 5 7 6 6 5 4 5 5 7 11 7 8 9 9 11 11 11 11 11 12 12 17 20 22 22 22 22 22 21 21 21 21 21 18 18 18 18
20 20 19 19 17 15 13 13 12 11 9 8 6 5 5 4 3 2 8 2 3 3 4 4 8 5 7 8 7 7 9 11 10 12 13 13 13 15 20 21 23 22 21 21 22 21 20 20 22 22 21 21 21 18
16 15 14 14 15 14 13 13 12 9 9 8 7 4 4 2 14 8 4 4 3 4 5 7 10 11 11 8 7 8 8 9 12 12 10 13 12 18 21 22 20 21 20 13 21 20 26 21 19 19 23 19 16 15
15 14 14 13 13 12 12 11 10 8 8 4 4 0 7 9 5 3 5 6 5 5 7 8 11 9 8 10 9 2 5 6 7 13 14 14 13 16 6 5 9 16 23 5 5 10 10 21 20 16 19 22 16 15
13 12 11 11 10 11 10 8 8 8 2 5 4 3 4 4 3 5 4 5 6 7 7 9 5 5 2 5 4 5 5 4 8 9 12 16 12 13 2 2 2 10 19 8 10 14 13 15 11 19 19 14 14 12
10 10 9 9 8 9 9 7 8 8 11 6 5 3 3 3 3 7 8 5 6 6 3 2 3 3 3 5 3 3 5 8 9 13 17 15 7 6 1 7 6 11 12 13 16 14 13 18 18 21 16 15 17 14
8 8 8 7 6 6 7 7 5 6 5 3 4 3 5 6 7 8 11 6 4 9 6 1 3 2 2 2 4 5 7 6 6 12 17 8 10 11 7 7 7 11 11 13 17 15 21 17 12 17 15 13 15 15
9 7 7 6 4 4 5 6 6 6 3 4 4 5 10 10 8 5 9 8 8 8 12 4 1 3 4 4 5 7 6 7 7 9 5 6 9 9 17 9 11 8 11 12 14 12 15 15 12 14 17 15 14 16
4 2 4 5 3 4 7 7 5 3 4 4 6 9 9 5 7 7 7 8 7 8 2 2 3 3 7 5 6 9 9 17 13 6 4 7 10 14 11 10 12 16 16 12 10 11 10 11 13 14 15 16 17 18
2 0 7 5 3 4 5 3 3 5 6 6 6 8 9 8 10 11 3 9 3 10 7 2 4 8 3 6 5 5 11 13 10 10 9 10 11 12 13 15 15 12 12 13 15 14 12 12 12 13 15 16 16 16
2 7 6 3 3 2 3 5 3 4 7 7 9 10 10 9 9 8 6 6 6 7 7 10 9 9 9 15 15 14 14 15 13 13 13 14 16 16 14 14 14 12 10 12 12 13 12 12 13 12 14 14 11 4
5 2 4 1 4 3 3 5 4 5 6 8 8 8 9 9 9 9 8 8 7 7 6 5 7 7 10 11 13 12 13 13 15 16 15 17 18 17 13 16 17 13 11 14 12 9 9 13 11 11 10 6 6 8
6 5 7 5 5 3 5 2 5 5 6 7 9 8 9 9 8 8 8 8 6 5 4 5 11 12 12 12 11 11 12 13 14 16 17 15 13 16 16 13 10 13 12 13 11 11 9 9 10 11 7 9 11 10
6 6 6 5 4 3 4 3 5 5 7 6 6 8 8 6 4 3 3 1 2 4 4 6 10 11 10 12 10 9 13 13 12 11 13 14 11 11 12 11 11 10 9 9 9 8 12 9 7 7 10 11 11 10
2 6 2 2 4 3 4 5 5 6 4 6 6 2 4 4 4 4 4 2 2 2 3 3 7 10 11 13 11 12 14 16 15 12 16 15 12 10 10 9 9 10 8 8 9 8 6 5 6 9 11 12 12 12
4 2 1 2 3 3 4 3 3 3 4 3 3 3 4 3 3 0 1 1 1 2 6 8 10 12 13 16 16 16 16 17 11 9 9 9 11 11 10 10 8 9 7 7 4 4 5 7 7 9 12 14 13 12
2 2 2 2 3 4 2 2 2 3 3 3 3 4 3 3 2 2 2 0 3 7 8 11 8 9 9 10 8 6 6 6 7 8 8 9 10 10 8 8 7 8 7 8 4 7 8 7 9 12 16 17 14 12
2 4 3 5 3 3 3 3 3 2 3 3 2 3 3 2 3 2 3 3 4 7 9 10 9 7 6 6 6 7 10 7 9 10 10 6 8 8 2 1 3 3 2 3 2 9 10 10 12 16 16 15 14 14
4 4 5 3 2 3 2 3 3 2 3 3 3 4 3 3 4 4 4 7 6 8 11 11 9 8 8 9 10 9 9 9 9 7 7 6 2 3 3 6 5 4 4 3 8 12 14 13 15 17 13 11 12 17
3 4 5 4 3 3 3 5 4 3 3 4 5 7 7 6 6 4 4 3 7 10 10 9 8 9 9 10 9 9 10 10 9 5 7 7 7 7 6 5 6 4 6 10 13 16 16 16 11 12 16 13 12 14
7 4 5 3 4 6 3 3 4 5 4 5 4 7 4 5 3 3 3 7 10 10 8 7 8 9 9 8 8 8 10 10 12 8 6 6 7 6 8 7 7 16 10 9 13 13 13 10 10 16 15 13 13 12
5 5 5 4 4 4 5 4 4 3 2 3 2 1 2 2 2 2 3 6 7 7 9 11 10 10 9 9 9 9 9 11 15 19 19 11 8 5 6 8 7 5 6 8 9 9 14 13 13 12 13 11 11 11
4 4 2 5 7 5 4 3 5 4 3 3 3 2 2 2 1 5 8 9 9 9 8 9 9 10 11 11 11 12 9 9 10 9 7 9 8 6 8 7 6 4 4 6 7 10 11 14 13 12 11 10 10 11
1 1 2 2 3 5 5 5 1 3 4 6 7 2 4 4 2 3 9 9 9 10 10 11 11 10 10 12 10 10 11 9 13 14 11 9 9 7 8 7 6 4 6 7 5 11 12 12 12 13 13 14 15 12
2 3 3 3 4 4 3 2 6 3 3 3 5 4 4 2 4 6 7 7 9 10 10 10 10 11 9 8 7 7 6 6 7 8 12 8 7 7 8 7 8 7 7 9 8 7 11 12 10 11 14 16 16 17
2 2 2 2 2 3 2 2 3 4 1 3 3 4 6 4 5 2 2 5 7 7 9 9 9 7 7 11 10 9 8 8 9 2 5 8 8 7 7 9 8 9 11 8 9 10 12 12 11 14 14 13 16 16
Wind_Direction
193 193 195 195 196 194 196 197 196 198 197 197 199 243 310 336 340 330 331 73 297 284 288 318 292 276 268 262 278 42 259 177 222 242 264 259 262 261 264 263 266 258 219 229 229 239 250 6 318 300 60 100 120 93
190 193 194 191 191 193 191 189 188 188 190 192 200 226 265 307 329 340 266 160 271 260 282 322 301 295 295 306 315 293 282 305 308 288 244 300 283 283 270 265 262 257 264 272 140 272 344 334 348 357 343 316 206 94
192 193 193 189 187 186 184 178 173 178 179 188 198 213 250 289 302 321 311 345 275 259 268 243 231 227 217 248 264 258 260 348 287 349 317 304 284 304 286 280 296 275 273 265 299 269 283 233 355 348 35 335 301 66
194 195 191 189 185 178 166 158 155 167 184 194 194 208 230 261 296 301 289 313 285 292 285 202 94 176 186 226 234 241 277 306 301 285 268 274 276 281 277 290 290 287 308 302 285 288 283 198 229 256 199 231 273 303
188 184 175 160 145 140 145 148 158 174 177 178 190 211 223 250 269 281 266 274 269 292 311 324 324 227 180 206 223 229 237 251 256 249 241 248 259 271 275 280 271 272 275 272 281 304 325 307 318 323 312 312 312 314
140 129 127 126 130 135 141 157 160 160 162 172 171 166 177 242 283 251 217 123 26 297 278 286 9 194 178 213 239 244 238 233 246 259 257 267 277 275 275 270 273 282 286 285 283 292 292 289 284 286 285 286 287 289
105 110 117 124 131 140 144 146 153 158 162 166 168 176 202 243 260 350 26 333 332 298 258 274 249 175 226 210 222 236 233 238 246 251 251 257 257 257 263 263 276 272 273 272 278 292 290 287 290 293 296 288 286 287
107 115 121 127 131 136 141 146 150 153 158 163 171 189 198 252 276 251 189 232 288 280 286 272 264 203 173 207 226 201 224 216 218 236 244 254 260 251 252 261 268 267 266 268 268 268 269 271 273 275 278 282 280 276
108 113 120 125 128 133 140 144 147 153 155 156 159 170 189 233 228 106 113 166 231 281 293 268 268 324 160 238 254 259 228 241 243 239 243 244 243 246 256 258 259 264 271 271 271 270 268 273 284 258 253 250 253 256
113 123 129 132 133 135 139 143 147 155 156 162 200 193 204 130 113 134 161 185 199 217 227 262 279 275 291 291 273 268 248 250 261 259 261 254 266 274 267 259 255 255 256 278 279 281 280 256 251 262 280 266 249 253
111 116 122 128 134 141 147 150 154 148 172 206 226 275 93 143 208 200 222 210 181 226 212 235 233 266 253 260 273 291 294 283 262 271 270 265 266 265 18 21 14 12 317 294 351 309 333 309 316 281 249 261 260 262
107 116 126 133 140 151 157 166 181 216 7 321 293 230 160 205 205 239 218 209 196 238 198 227 195 235 354 340 326 350 306 276 260 261 265 264 270 268 197 321 75 334 288 300 310 308 304 283 286 277 273 279 287 288
113 119 123 128 144 167 175 191 221 283 295 243 231 217 180 189 227 232 211 201 232 243 279 263 85 4 11 40 9 274 247 247 254 258 260 262 23 50 204 248 257 248 291 319 314 305 274 240 277 282 282 270 274 267
110 119 124 129 129 141 175 190 196 244 272 244 213 253 229 216 218 233 258 278 295 338 331 279 135 123 161 228 257 239 242 272 256 248 265 54 10 339 298 298 308 284 289 288 287 286 293 284 290 299 293 274 278 276
100 123 133 136 150 159 146 169 201 236 278 259 223 238 220 236 247 208 266 275 179 206 239 150 172 194 204 241 218 266 257 240 251 283 11 2 320 291 287 290 288 277 269 266 274 272 265 277 289 280 277 275 272 266
37 324 102 108 142 193 179 184 199 229 247 248 238 259 274 196 268 303 313 267 250 224 214 149 270 217 222 230 215 229 260 265 281 355 283 231 236 259 306 300 302 301 293 282 279 285 279 269 270 271 264 259 257 252
327 68 126 109 109 118 182 245 192 225 250 230 241 231 263 288 219 251 256 259 106 265 266 188 225 233 221 231 247 260 270 286 298 292 309 309 316 313 309 307 301 307 310 309 302 293 276 268 266 267 256 248 249 248
322 131 126 90 306 159 216 220 277 262 255 257 265 266 274 276 288 284 265 271 293 284 272 268 261 238 250 272 278 294 304 302 303 305 308 314 317 309 304 308 311 305 291 283 276 275 271 266 260 259 240 244 241 185
14 62 143 339 338 292 230 202 232 268 265 275 274 285 289 292 291 286 280 274 274 276 276 274 263 245 253 268 281 300 303 308 310 309 304 306 304 303 318 316 307 298 290 286 282 271 263 256 255 252 245 197 147 133
284 239 211 225 246 268 266 207 193 260 275 297 293 308 316 304 347 326 331 7 0 323 257 245 250 263 282 297 312 303 301 304 300 299 297 298 306 312 299 291 295 293 291 287 276 257 251 240 233 246 261 147 136 126
186 146 160 222 206 275 281 266 235 252 306 294 323 338 313 326 324 327 296 314 181 216 239 246 283 299 312 303 299 293 285 279 273 272 281 289 291 289 290 286 280 276 281 286 276 265 231 231 202 193 156 137 133 131
78 172 190 206 246 246 259 256 290 326 296 297 313 249 265 275 255 217 167 177 228 241 262 284 278 285 288 289 285 277 273 274 272 268 265 269 275 277 280 283 289 284 284 283 306 274 140 115 124 129 124 121 120 123
262 282 328 217 241 239 271 24 279 267 264 262 234 244 225 235 255 173 170 188 310 243 315 299 288 287 280 280 279 276 273 270 266 265 266 266 266 270 273 276 268 268 276 286 295 122 114 120 119 125 123 115 118 128
39 243 234 257 247 273 310 244 231 258 267 258 251 272 296 279 335 43 308 295 336 315 308 303 291 292 291 279 274 293 317 319 278 274 268 277 282 281 269 262 253 265 259 266 275 130 127 116 118 130 123 124 133 158
233 204 212 234 224 237 247 246 230 246 270 301 295 279 271 292 30 11 343 318 306 321 321 321 316 304 297 303 317 301 281 269 279 288 291 269 259 273 285 350 11 2 5 125 135 117 120 116 115 113 119 139 163 149
260 190 204 266 169 208 284 284 274 298 287 289 279 285 312 13 44 358 328 322 318 324 325 322 322 335 340 336 323 319 320 321 318 306 297 324 310 83 40 27 41 28 354 72 122 122 116 114 117 125 151 171 118 125
270 243 201 225 251 210 229 248 246 257 298 11 340 358 4 19 15 344 311 315 312 319 321 318 332 338 325 319 331 332 326 327 324 296 292 341 46 35 49 12 46 357 67 93 109 112 119 119 131 138 126 130 127 127
238 242 237 214 215 223 344 51 37 39 18 349 15 23 26 357 326 302 274 291 311 317 322 335 340 335 336 336 339 335 340 342 353 64 93 50 44 37 66 57 42 30 47 62 99 106 114 129 136 114 111 108 110 113
233 226 217 233 215 75 35 46 60 71 44 25 47 22 41 177 224 273 301 311 313 328 348 348 346 349 357 359 358 354 6 358 3 8 12 17 22 31 51 74 68 37 39 77 72 126 128 112 111 115 113 113 118 116
259 114 302 360 46 84 46 43 105 127 155 105 109 150 179 166 351 20 6 356 353 357 353 342 343 353 2 356 351 356 3 2 359 359 349 342 0 82 77 80 69 43 39 58 65 95 96 104 101 110 115 113 109 116
234 342 32 148 83 87 107 135 235 301 183 178 178 82 84 113 154 67 32 4 357 0 355 347 350 356 357 353 350 343 343 346 352 355 356 344 6 22 96 83 88 72 81 64 57 124 127 128 130 127 132 127 124 134
193 228 335 46 128 125 199 204 172 171 276 59 43 87 128 176 68 25 19 1 354 358 351 342 343 347 343 334 329 326 295 320 358 1 355 344 341 350 88 94 89 76 66 51 47 97 115 110 124 128 125 138 153 149
323 13 278 285 230 247 114 305 222 172 111 54 63 26 67 46 65 34 332 5 358 353 345 333 328 329 335 329 319 325 321 339 351 7 5 5 5 9 69 91 93 79 72 57 49 52 60 91 116 132 151 150 130 132